OBJECT G, 57172

Orbit data source: Space-Track

You're viewing an uncataloged RSO

Recently launched and/or uncataloged RSOs may have evolving metadata. Metadata may include the following, but is not limited to: Owner, Manufacturer, Bus, Motor, and Mission.

OBJECT G, 57172 is a satellite in SSO that was launched on Tue, 27 Jun 2023 UTC via a SOYUZ-2-1B launch vehicle from the Vostochny Cosmodrome (VOSTO). Unknown objects in Earth's orbit typically refer to objects detected orbiting the Earth but have not yet been identified or cataloged. These objects could be anything from previously untracked satellites, spent rocket stages, debris from satellite collisions, or even natural meteoroids temporarily captured by Earth's gravity.

Loading next visibility...
Identifier
57172, 2023-091G
Orbit
SSO
Country
Flag of TBDTBD
Related business
None
Manufacturer
Unknown
Mission
Operational Amateur Technology
Bus & Motor
Unknown
Mass
Unknown
Launch date (UTC)
2023-06-27 (3 years ago)
Launch vehicle
SOYUZ-2-1B
Launch site
Vostochny Cosmodrome (VOSTO)
Object type
Unknown
Shape & HBR
Box, 0.2 m
Radar Cross Section
0.035 m², Medium (>0.1 m² and < 1m²)

Expand to show TLE details & history
Last TLE update: 6 hours ago

TLE from 6 hours ago
0 OBJECT G
1 57172U 23091G   26220.19483718  .00002727  00000-0  12476-3 0  9991
2 57172  97.5016 278.6999 0010918 301.5269  58.4899 15.21351552171919
Epoch: 2026-08-08T04:40Z
TLE epoch observation values (Epoch: 2026-08-08T04:40:33.932Z)
Latitude
-0.00008°
Longitude
-108.15115°
Altitude
500.932 km
Speed
7.616 km/s
True Right ascension
18h 34m 47s
True Declination
0° 00' 00"
Sunlit
Object was in full shadow at epoch
Visualization orbit readout
Latitude
Unknown
Longitude
Unknown
Altitude
Unknown
Speed
Unknown
Apparent Right ascension
Unknown
Apparent Declination
Unknown
Sunlit
N/A
Visualization observer readout
Local Sidereal Time
00:53:23
Azimuth
Unknown
Elevation
Unknown
Doppler factor
Unknown
Orbital elements
Apogee altitude
506.239 km
Perigee altitude
491.223 km
Semi-major axis
6,876.868 km
Eccentricity
0.00109
Inclination
97.5016°
RAAN
278.6999°
Arg. of periapsis
301.5269°
True anomaly
58.59664°
Mean anomaly
58.4899°
Eccentric anomaly
58.54326°
Mean motion
3.8059 °/min
Orbital period
94.59 mins
BSTAR
0.00012476
Loading maneuver chart data...
Computing Atmospheric mass density...
Loading historical data...
Loading historical data...
Loading historical data...
Loading historical data...
Loading historical data...
Loading historical data...
Loading historical data...

Documentation

Showing up to 5 results
|